Theta_e
320 321 321 322 322 323 323 323 323 322 322 322 323 323 323 324 323 320 310 317 318 330 324 315 314 314 314 313 313 313 303 300 301 301 301 307 304 308 310 307 309 310 310 312 313
320 320 321 321 321 322 323 323 323 323 323 322 322 322 322 323 317 313 322 325 333 327 315 312 310 311 310 310 311 307 302 301 305 305 303 304 305 305 305 305 306 308 312 313 312
320 319 320 320 321 322 323 323 324 324 323 323 322 322 321 322 311 309 326 329 333 324 315 314 312 310 307 309 308 307 301 305 305 306 305 304 303 306 304 302 306 306 309 311 312
319 319 319 320 321 322 323 324 324 324 323 323 322 322 322 318 299 311 331 333 331 317 313 311 309 306 304 303 307 302 305 305 306 306 304 303 305 304 305 305 309 310 310 310 310
319 319 319 320 320 322 323 324 324 324 323 323 322 321 318 306 305 324 328 330 317 313 310 309 306 306 302 304 304 303 304 305 306 306 305 305 303 303 304 308 310 310 309 309 309
319 319 319 320 321 322 323 323 324 323 323 322 322 320 311 302 313 322 324 320 314 312 310 310 307 308 304 303 302 304 303 303 304 303 304 302 303 304 305 308 307 307 307 308 309
320 319 319 319 321 322 323 323 323 322 323 321 322 318 306 306 316 320 319 315 314 312 309 311 310 306 306 302 306 303 298 301 302 303 302 302 299 299 306 307 306 306 307 309 309
320 319 319 319 321 322 322 323 322 322 321 321 321 315 305 310 316 314 313 311 313 312 310 310 310 307 304 306 302 299 299 295 302 301 301 300 295 303 306 304 304 306 307 308 309
319 318 319 320 320 321 322 322 319 321 320 320 316 309 304 310 307 310 311 307 309 309 309 308 308 304 303 298 296 298 293 296 298 304 299 299 296 303 305 304 303 304 305 306 307
319 319 319 320 320 321 322 320 318 317 319 318 312 302 305 303 307 307 309 309 305 306 304 304 303 299 298 296 290 294 296 297 297 301 300 298 297 301 303 303 302 303 305 306 306
319 319 320 320 321 322 319 317 312 310 308 308 306 305 305 307 309 306 307 305 306 303 297 301 296 294 297 298 297 297 295 294 298 301 299 297 297 299 302 303 302 303 304 305 305
319 320 320 321 321 322 316 312 306 305 304 312 310 309 308 306 304 304 307 301 300 297 300 296 293 299 301 299 296 296 294 294 298 300 296 296 295 299 301 302 303 303 303 304 305
319 319 320 321 321 321 313 308 311 309 303 308 306 305 305 305 305 306 304 302 299 298 297 295 299 300 297 297 295 295 294 294 293 296 297 296 294 299 302 304 303 303 303 303 304
319 319 320 321 318 320 312 311 312 309 300 302 300 301 301 302 299 302 303 302 299 297 300 297 299 296 295 294 296 291 297 295 294 291 289 296 287 295 300 301 302 302 303 303 302
319 319 320 320 316 316 308 307 307 306 288 298 297 306 302 297 298 298 302 301 297 297 296 296 294 293 293 294 296 293 294 293 293 291 291 292 288 294 299 297 298 300 298 299 299
318 319 319 317 315 312 308 306 305 294 286 296 297 297 297 297 296 298 298 301 299 296 296 295 296 295 296 296 295 295 293 294 294 292 286 293 291 292 294 296 297 297 297 297 297
313 316 317 318 313 311 309 310 294 288 300 294 293 295 295 294 295 296 296 294 293 290 292 296 294 296 296 292 294 292 291 286 286 286 285 295 291 293 298 300 297 296 295 296 297
310 315 315 317 312 312 314 300 286 293 294 301 298 296 293 298 298 298 296 294 298 294 292 289 288 293 296 294 294 293 293 287 280 283 287 292 286 291 299 298 297 297 297 296 295
312 313 312 314 315 317 308 291 291 296 300 298 298 294 294 297 296 296 296 295 297 297 289 290 290 294 295 296 295 293 288 293 286 287 284 287 291 296 300 296 296 295 295 294 293
306 303 303 315 314 310 299 292 296 299 301 299 293 295 291 293 293 294 294 296 294 295 296 294 287 296 295 294 295 291 292 286 287 278 278 284 287 288 293 293 293 292 291 291 291
306 300 306 315 313 303 290 293 297 300 301 296 295 294 294 292 294 292 292 296 298 297 295 294 291 290 294 291 290 290 289 289 288 286 280 279 284 294 293 292 290 289 290 289 289
303 293 308 314 299 299 293 296 295 296 299 298 298 296 293 293 291 291 291 294 298 297 292 296 291 286 288 294 295 293 290 290 283 282 285 283 283 296 295 290 289 288 289 288 288
296 297 307 307 290 292 293 292 294 292 292 293 292 294 294 290 287 290 291 296 296 295 292 293 288 281 284 288 292 289 290 289 288 287 282 280 283 294 294 292 288 286 287 287 286
296 290 297 298 300 293 291 290 290 296 293 293 291 293 290 288 290 287 288 292 293 292 290 292 286 284 280 284 286 283 285 286 285 280 281 281 283 287 289 287 286 285 285 284 284
294 289 293 288 290 292 293 290 288 288 293 293 290 290 289 285 287 286 289 288 289 287 288 288 281 284 285 285 283 281 281 282 280 282 277 280 281 284 286 283 284 285 284 283 282
289 288 291 290 292 290 290 288 286 288 289 287 287 289 287 284 287 283 285 285 285 286 285 284 280 281 277 281 281 279 281 281 281 280 280 281 280 287 283 282 282 281 281 281 282
292 292 291 287 287 287 288 288 286 289 286 287 287 286 284 286 288 288 287 286 286 283 282 281 280 277 274 279 277 272 276 278 279 282 281 276 279 280 279 279 279 280 281 281 282
Wind_Speed
6 7 7 8 8 9 9 10 10 10 10 10 10 11 11 12 11 5 8 1 1 13 6 7 6 5 5 3 3 2 6 8 9 7 3 4 7 5 4 10 10 9 13 7 4
6 7 7 8 9 10 10 10 10 11 11 11 11 11 11 11 8 12 2 4 11 11 10 11 8 7 6 4 4 7 8 10 5 8 8 10 9 12 12 12 14 17 18 14 8
6 6 7 8 9 10 11 12 12 11 11 10 11 11 11 10 8 2 4 7 11 10 6 8 5 7 9 5 7 6 10 11 9 11 12 12 13 13 13 15 17 13 9 11 10
6 7 8 9 10 11 11 12 12 12 12 11 10 10 10 5 7 4 2 7 10 9 7 6 7 6 7 10 9 10 14 15 12 6 7 12 14 14 14 22 20 21 19 17 14
5 6 8 9 11 12 12 13 14 13 12 11 9 7 6 6 7 4 6 8 11 8 10 10 11 10 10 7 7 15 14 12 12 11 14 17 18 18 19 23 22 21 17 15 14
6 6 7 9 10 12 13 14 14 14 11 9 7 5 5 12 3 3 5 7 8 11 10 11 5 7 11 11 11 10 11 16 17 16 15 16 20 13 10 12 13 14 16 15 15
7 7 7 8 10 11 13 14 15 11 10 8 6 5 7 12 2 4 5 3 3 8 9 10 5 7 6 9 6 9 13 15 20 20 10 5 13 12 18 14 15 17 17 15 14
7 7 8 9 10 12 14 13 13 8 5 2 4 5 8 2 2 3 4 3 3 3 4 2 4 7 6 4 7 9 11 10 1 6 3 6 14 15 8 9 17 21 22 20 21
7 7 8 9 11 13 15 15 6 2 3 4 4 5 6 3 2 2 3 3 5 4 3 3 4 6 4 9 12 12 12 16 16 9 3 9 14 12 16 20 26 23 20 17 16
8 7 8 9 10 13 18 8 5 4 5 5 3 5 6 1 4 3 1 6 2 7 5 6 6 9 9 11 12 14 19 19 15 14 10 15 21 20 20 16 24 24 18 15 11
8 8 8 9 10 12 12 4 5 6 5 7 5 7 1 3 2 2 1 5 4 7 7 9 9 12 17 16 19 20 19 21 19 19 21 21 20 18 21 20 21 20 14 9 5
8 7 7 8 10 12 7 4 3 4 9 10 15 12 4 3 6 4 6 8 6 11 7 5 13 15 15 9 13 17 21 21 17 13 6 16 20 26 20 21 11 11 9 6 5
9 8 7 8 9 7 3 3 1 2 7 7 2 4 1 4 6 6 8 3 8 12 11 18 14 6 8 14 17 18 20 19 21 19 13 14 16 6 9 12 3 4 2 2 6
10 9 7 5 4 1 2 4 2 2 8 6 5 2 3 2 4 1 1 4 3 8 12 13 8 9 13 18 16 19 15 13 12 7 10 8 9 14 6 8 6 7 12 14 18
11 10 9 10 3 2 4 4 3 3 8 6 4 3 2 3 4 2 1 5 9 6 4 3 3 4 8 8 5 6 2 6 8 11 16 12 9 4 6 4 12 11 16 16 18
8 11 7 3 2 2 4 3 1 4 9 2 3 3 4 4 3 4 2 2 3 6 11 19 1 5 11 2 7 3 6 12 11 8 10 12 11 3 2 11 8 15 15 14 14
3 4 9 5 5 9 6 0 2 6 3 4 1 3 3 4 4 6 5 8 6 7 10 9 15 6 6 7 5 6 8 7 8 8 12 8 8 9 4 14 7 11 11 12 11
5 3 1 2 6 8 3 3 7 2 4 2 1 2 3 10 15 12 7 10 10 6 11 13 11 11 11 8 7 8 6 8 7 11 16 13 15 9 7 12 13 12 11 10 11
4 2 1 3 6 4 4 6 8 10 6 7 9 15 17 3 6 4 8 11 11 8 8 10 11 5 5 1 2 2 7 6 6 14 11 16 22 20 16 10 11 11 11 14 15
2 2 2 2 4 1 3 4 6 3 6 4 13 10 16 14 9 7 7 4 1 1 2 4 11 7 3 2 8 7 2 6 5 6 18 20 19 14 12 8 8 10 10 10 10
2 2 4 6 2 2 4 6 5 4 4 5 10 16 19 16 11 14 7 5 5 7 3 7 7 17 13 11 14 9 10 11 11 10 15 20 18 12 8 8 8 8 7 9 10
3 3 2 4 5 3 5 4 3 4 3 6 5 12 17 15 15 17 18 14 5 3 7 7 6 14 21 22 22 20 21 20 15 19 15 18 20 19 10 11 10 11 6 5 5
4 3 2 3 8 8 3 2 3 7 7 4 7 6 4 7 7 11 13 6 8 3 3 4 3 7 12 10 3 5 7 8 12 7 19 18 15 9 15 14 10 6 5 6 7
4 6 4 3 8 11 13 12 11 10 13 14 8 11 10 12 11 6 5 4 4 4 5 4 3 8 11 17 11 8 11 15 11 6 9 12 17 22 22 15 12 6 7 7 8
3 3 1 7 9 11 12 2 11 11 9 5 7 14 11 7 9 14 15 1 4 3 3 2 9 10 15 17 17 15 17 19 17 20 16 22 23 21 20 11 9 7 8 9 11
4 4 2 1 5 16 14 11 15 8 5 9 8 9 4 4 4 3 1 4 6 4 2 2 8 6 10 12 15 18 22 20 21 22 25 25 27 16 6 3 8 11 13 15 15
1 1 3 4 7 7 11 14 7 11 4 4 3 4 5 5 4 1 3 4 5 3 5 4 5 5 18 15 15 13 19 21 22 23 21 18 10 6 0 4 10 15 18 17 17
Wind_Direction
24 22 17 13 7 2 359 356 348 344 336 332 333 332 330 330 302 231 252 240 126 157 204 158 195 191 214 217 245 280 256 268 267 263 275 152 264 165 281 277 253 235 268 340 103
6 3 360 356 352 347 344 342 339 333 328 326 327 327 329 334 282 269 90 116 139 168 177 188 201 196 221 233 212 231 246 278 296 281 278 296 268 289 284 265 267 256 232 244 220
340 343 341 338 340 340 337 332 329 321 315 312 314 319 322 314 281 79 37 146 161 190 240 232 268 219 250 248 220 216 249 277 299 283 296 285 291 277 267 275 270 275 291 292 262
326 328 330 330 332 333 329 328 323 316 308 303 300 308 317 252 297 69 359 151 163 197 191 193 209 220 247 231 239 259 244 273 285 310 288 275 288 281 270 270 282 291 298 294 281
311 316 320 322 327 326 327 327 322 315 305 297 284 296 277 233 253 79 122 144 167 195 209 212 228 238 256 270 287 246 270 281 286 280 274 284 268 268 273 276 283 285 286 272 263
294 300 309 316 318 319 321 323 323 317 305 295 261 271 243 259 74 97 127 160 193 204 218 225 243 272 287 274 255 328 294 286 279 271 271 262 277 286 266 274 287 284 282 274 270
285 295 305 311 313 315 314 319 322 314 312 296 209 234 246 258 56 126 154 185 217 228 233 235 279 243 344 262 295 286 292 291 274 255 254 273 271 232 261 270 279 284 283 280 260
270 287 301 309 314 315 313 317 314 325 5 106 185 236 264 47 61 174 179 143 174 198 268 325 231 264 255 312 258 270 277 282 340 110 174 209 280 298 355 319 291 288 286 283 287
272 283 298 311 317 316 313 315 278 6 93 144 222 252 259 138 188 114 233 210 147 151 100 140 198 243 199 243 268 236 272 279 292 303 213 223 295 299 308 301 288 285 284 296 303
267 279 295 310 318 318 316 297 202 241 217 237 255 244 187 45 102 111 95 172 160 152 147 193 213 229 226 235 251 280 294 295 290 292 241 272 277 293 291 281 276 280 300 308 314
257 273 290 307 316 325 325 258 230 202 205 267 328 285 315 67 179 126 179 169 158 206 215 197 220 221 240 235 255 283 289 282 288 294 288 289 299 297 287 281 269 288 302 319 10
244 258 281 299 314 319 287 327 37 2 297 259 264 266 245 322 276 168 179 201 206 228 199 187 235 252 263 273 290 278 277 280 281 279 300 289 295 280 281 270 282 305 306 323 34
236 245 264 292 316 288 347 53 33 305 260 254 203 266 280 228 245 245 198 223 229 248 224 253 275 352 281 260 263 261 272 282 287 305 285 290 286 251 246 257 270 29 343 358 71
232 233 240 277 288 107 132 119 185 307 271 218 179 134 168 220 189 26 225 272 222 272 254 266 310 276 265 260 266 279 283 287 286 290 286 12 294 295 302 272 140 95 57 36 55
226 224 221 195 2 246 44 74 28 233 275 59 121 69 138 240 116 119 158 191 243 226 239 265 199 216 242 246 249 254 335 278 273 268 287 269 242 253 257 256 90 84 67 59 60
227 223 212 167 120 126 133 107 299 141 240 128 116 168 195 190 148 128 179 226 334 235 230 259 69 254 245 222 226 29 273 260 263 266 256 257 234 302 334 136 153 79 77 71 65
68 248 165 158 179 155 146 33 230 233 312 140 123 197 260 160 178 200 198 195 227 245 260 250 219 221 231 243 188 224 271 286 258 225 255 300 281 248 285 288 73 106 91 80 67
50 30 278 314 118 148 122 137 211 203 265 351 352 346 270 313 293 286 255 263 206 239 283 279 273 196 164 233 313 202 259 273 294 280 296 302 267 258 324 90 105 101 90 73 51
53 41 254 160 159 178 183 215 196 181 179 175 277 268 266 220 249 279 242 273 281 227 242 282 243 110 184 118 308 19 229 278 272 272 273 269 272 274 258 129 101 86 63 39 25
95 108 264 183 152 227 228 215 218 138 179 226 249 252 278 285 240 250 279 87 173 240 3 318 286 246 355 155 213 230 30 259 213 244 257 272 279 285 282 108 60 45 44 40 33
157 206 108 161 158 191 203 234 245 319 218 197 233 258 271 269 265 269 269 286 262 299 302 308 274 276 283 231 255 224 243 228 262 251 266 274 270 298 52 65 67 37 31 13 10
157 214 124 178 193 218 218 211 112 245 249 266 293 276 274 281 273 254 252 255 62 321 281 277 296 288 274 282 290 286 279 273 261 267 245 249 257 285 12 89 43 1 21 18 354
203 179 157 245 219 222 183 265 249 192 239 219 233 239 252 261 260 261 266 7 32 358 334 25 237 287 292 262 35 319 344 343 320 296 257 264 261 347 326 333 54 346 338 326 333
160 182 169 235 255 245 217 236 221 211 225 217 231 229 236 242 240 252 242 89 54 69 86 97 238 240 258 292 328 280 289 290 277 257 283 270 294 293 297 331 357 347 332 328 323
207 209 243 197 224 222 236 222 231 207 224 226 238 235 232 239 246 246 248 159 111 49 104 270 257 262 269 287 294 282 277 272 269 269 264 281 282 284 299 322 320 316 324 317 322
182 183 190 180 205 213 218 220 217 198 192 219 243 145 190 215 245 278 338 202 263 102 164 164 267 302 274 271 273 276 269 267 271 266 263 266 268 285 37 299 320 338 333 325 319
153 127 267 156 183 196 216 221 219 223 154 265 213 191 210 233 232 223 249 277 268 245 206 230 239 253 268 288 308 280 263 260 261 260 271 280 318 42 130 344 347 332 327 318 317